Time,TemperatureF,DewpointF,PressureIn,WindDirection,WindDirectionDegrees,WindSpeedMPH,WindSpeedGustMPH,Humidity,HourlyPrecipIn,Conditions,Clouds,dailyrainin,SoftwareType,DateUTC
2013-06-12 00:00:00,64.0,58.0,29.77,WSW,244,2.0,11.0,79,-99.99,,,-99.99,,2013-06-12 04:00:00,
2013-06-12 00:34:00,64.0,58.0,29.77,WSW,244,2.0,11.0,79,-99.99,,,-99.99,,2013-06-12 04:34:00,
2013-06-12 00:43:00,64.0,58.0,29.77,WSW,244,2.0,11.0,79,-99.99,,,-99.99,,2013-06-12 04:43:00,
2013-06-12 00:53:00,64.0,58.0,29.77,WSW,244,2.0,11.0,79,-99.99,,,-99.99,,2013-06-12 04:53:00,
2013-06-12 01:00:00,64.0,57.0,29.77,SSW,206,3.0,11.0,79,-99.99,,,-99.99,,2013-06-12 05:00:00,
2013-06-12 01:22:00,64.0,57.0,29.77,SSW,206,3.0,11.0,79,-99.99,,,-99.99,,2013-06-12 05:22:00,
2013-06-12 01:32:00,64.0,57.0,29.77,SSW,206,3.0,11.0,79,-99.99,,,-99.99,,2013-06-12 05:32:00,
2013-06-12 01:42:00,64.0,57.0,29.77,SSW,206,3.0,11.0,79,-99.99,,,-99.99,,2013-06-12 05:42:00,
2013-06-12 01:52:00,64.0,57.0,29.77,SSW,206,3.0,11.0,79,-99.99,,,-99.99,,2013-06-12 05:52:00,
2013-06-12 02:00:00,64.0,57.0,29.77,WSW,243,3.0,11.0,77,0.00,,,-99.99,,2013-06-12 06:00:00,
2013-06-12 02:22:00,64.0,57.0,29.77,WSW,243,3.0,11.0,77,-99.99,,,-99.99,,2013-06-12 06:22:00,
2013-06-12 02:32:00,64.0,57.0,29.77,WSW,243,3.0,11.0,77,-99.99,,,-99.99,,2013-06-12 06:32:00,
2013-06-12 02:42:00,64.0,57.0,29.77,WSW,243,3.0,11.0,77,-99.99,,,-99.99,,2013-06-12 06:42:00,
2013-06-12 02:52:00,64.0,57.0,29.77,WSW,243,3.0,11.0,77,-99.99,,,-99.99,,2013-06-12 06:52:00,
2013-06-12 03:00:00,64.0,56.0,29.77,SSW,208,4.0,19.0,77,0.00,,,-99.99,,2013-06-12 07:00:00,
2013-06-12 03:33:00,64.0,56.0,29.77,SSW,208,4.0,19.0,77,0.00,,,-99.99,,2013-06-12 07:33:00,
2013-06-12 03:43:00,64.0,56.0,29.77,SSW,208,4.0,19.0,77,0.00,,,-99.99,,2013-06-12 07:43:00,
2013-06-12 03:53:00,64.0,56.0,29.77,SSW,208,4.0,19.0,77,0.00,,,-99.99,,2013-06-12 07:53:00,
2013-06-12 04:00:00,63.0,57.0,29.77,SW,223,2.0,13.0,81,0.00,,,-99.99,,2013-06-12 08:00:00,
2013-06-12 04:33:00,63.0,57.0,29.77,SW,223,2.0,13.0,81,0.00,,,-99.99,,2013-06-12 08:33:00,
2013-06-12 04:43:00,63.0,57.0,29.77,SW,223,2.0,13.0,81,0.00,,,-99.99,,2013-06-12 08:43:00,
2013-06-12 04:53:00,63.0,57.0,29.77,SW,223,2.0,13.0,81,0.00,,,-99.99,,2013-06-12 08:53:00,
2013-06-12 05:00:00,62.0,54.0,29.80,SSE,162,2.0,10.0,76,0.00,,,-99.99,,2013-06-12 09:00:00,
2013-06-12 05:33:00,62.0,54.0,29.80,SSE,162,2.0,10.0,76,0.00,,,-99.99,,2013-06-12 09:33:00,
2013-06-12 05:43:00,62.0,54.0,29.80,SSE,162,2.0,10.0,76,0.00,,,-99.99,,2013-06-12 09:43:00,
2013-06-12 05:53:00,62.0,54.0,29.80,SSE,162,2.0,10.0,76,0.00,,,-99.99,,2013-06-12 09:53:00,
2013-06-12 06:00:00,62.0,51.0,29.83,SSE,166,4.0,16.0,67,0.00,,,-99.99,,2013-06-12 10:00:00,
2013-06-12 06:33:00,62.0,51.0,29.83,SSE,166,4.0,16.0,67,0.00,,,-99.99,,2013-06-12 10:33:00,
2013-06-12 06:43:00,62.0,51.0,29.83,SSE,166,4.0,16.0,67,0.00,,,-99.99,,2013-06-12 10:43:00,
2013-06-12 06:53:00,62.0,51.0,29.83,SSE,166,4.0,16.0,67,0.00,,,-99.99,,2013-06-12 10:53:00,
2013-06-12 07:00:00,61.0,50.0,29.83,SSE,151,5.0,11.0,67,0.00,,,-99.99,,2013-06-12 11:00:00,
2013-06-12 07:33:00,61.0,50.0,29.83,SSE,151,5.0,11.0,67,0.00,,,-99.99,,2013-06-12 11:33:00,
2013-06-12 07:43:00,61.0,50.0,29.83,SSE,151,5.0,11.0,67,0.00,,,-99.99,,2013-06-12 11:43:00,
2013-06-12 07:53:00,61.0,50.0,29.83,SSE,151,5.0,11.0,67,0.00,,,-99.99,,2013-06-12 11:53:00,
2013-06-12 08:00:00,65.0,51.0,29.85,WSW,255,5.0,13.0,61,0.00,,,-99.99,,2013-06-12 12:00:00,
2013-06-12 08:33:00,65.0,51.0,29.85,WSW,255,5.0,13.0,61,0.00,,,-99.99,,2013-06-12 12:33:00,
2013-06-12 08:43:00,65.0,51.0,29.85,WSW,255,5.0,13.0,61,0.00,,,-99.99,,2013-06-12 12:43:00,
2013-06-12 08:53:00,65.0,51.0,29.85,WSW,255,5.0,13.0,61,0.00,,,-99.99,,2013-06-12 12:53:00,
2013-06-12 09:00:00,64.0,52.0,29.85,West,266,4.0,9.0,65,0.00,,,-99.99,,2013-06-12 13:00:00,
2013-06-12 09:33:00,64.0,52.0,29.85,West,266,4.0,9.0,65,0.00,,,-99.99,,2013-06-12 13:33:00,
2013-06-12 09:43:00,64.0,52.0,29.85,West,266,4.0,9.0,65,0.00,,,-99.99,,2013-06-12 13:43:00,
2013-06-12 09:53:00,64.0,52.0,29.85,West,266,4.0,9.0,65,0.00,,,-99.99,,2013-06-12 13:53:00,
2013-06-12 10:00:00,68.0,52.0,29.83,WSW,249,11.0,13.0,56,0.00,,,-99.99,,2013-06-12 14:00:00,
2013-06-12 10:33:00,68.0,52.0,29.83,WSW,249,11.0,13.0,56,0.00,,,-99.99,,2013-06-12 14:33:00,
2013-06-12 10:43:00,68.0,52.0,29.83,WSW,249,11.0,13.0,56,0.00,,,-99.99,,2013-06-12 14:43:00,
2013-06-12 10:53:00,68.0,52.0,29.83,WSW,249,11.0,13.0,56,0.00,,,-99.99,,2013-06-12 14:53:00,
2013-06-12 11:00:00,70.0,50.0,29.83,WSW,255,5.0,15.0,50,0.00,,,-99.99,,2013-06-12 15:00:00,
2013-06-12 11:33:00,70.0,50.0,29.83,WSW,255,5.0,15.0,50,0.00,,,-99.99,,2013-06-12 15:33:00,
2013-06-12 11:43:00,70.0,50.0,29.83,WSW,255,5.0,15.0,50,0.00,,,-99.99,,2013-06-12 15:43:00,
2013-06-12 11:52:00,70.0,50.0,29.83,WSW,255,5.0,15.0,50,0.00,,,-99.99,,2013-06-12 15:52:00,
2013-06-12 12:00:00,72.0,51.0,29.83,West,270,6.0,16.0,46,0.00,,,-99.99,,2013-06-12 16:00:00,
2013-06-12 12:33:00,72.0,51.0,29.83,West,270,6.0,16.0,46,0.00,,,-99.99,,2013-06-12 16:33:00,
2013-06-12 12:43:00,72.0,51.0,29.83,West,270,6.0,16.0,46,0.00,,,-99.99,,2013-06-12 16:43:00,
2013-06-12 12:53:00,72.0,51.0,29.83,West,270,6.0,16.0,46,0.00,,,-99.99,,2013-06-12 16:53:00,
2013-06-12 13:00:00,74.0,50.0,29.83,SSW,200,4.0,19.0,44,0.00,,,-99.99,,2013-06-12 17:00:00,
2013-06-12 13:33:00,74.0,50.0,29.83,SSW,200,4.0,19.0,44,0.00,,,-99.99,,2013-06-12 17:33:00,
2013-06-12 13:43:00,74.0,50.0,29.83,SSW,200,4.0,19.0,44,0.00,,,-99.99,,2013-06-12 17:43:00,
2013-06-12 13:52:00,74.0,50.0,29.83,SSW,200,4.0,19.0,44,0.00,,,-99.99,,2013-06-12 17:52:00,
2013-06-12 14:00:00,75.0,51.0,29.83,West,259,9.0,19.0,43,0.00,,,-99.99,,2013-06-12 18:00:00,
2013-06-12 14:33:00,75.0,51.0,29.83,West,259,9.0,19.0,43,0.00,,,-99.99,,2013-06-12 18:33:00,
2013-06-12 14:43:00,75.0,51.0,29.83,West,259,9.0,19.0,43,0.00,,,-99.99,,2013-06-12 18:43:00,
2013-06-12 14:53:00,75.0,51.0,29.83,West,259,9.0,19.0,43,0.00,,,-99.99,,2013-06-12 18:53:00,
2013-06-12 15:33:00,76.0,48.0,29.83,West,261,7.0,18.0,37,0.00,,,-99.99,,2013-06-12 19:33:00,
2013-06-12 16:00:00,76.0,50.0,29.80,ENE,59,3.0,17.0,40,0.00,,,-99.99,,2013-06-12 20:00:00,
2013-06-12 16:33:00,76.0,50.0,29.80,ENE,59,3.0,17.0,40,0.00,,,-99.99,,2013-06-12 20:33:00,
2013-06-12 16:43:00,76.0,50.0,29.80,ENE,59,3.0,17.0,40,0.00,,,-99.99,,2013-06-12 20:43:00,
2013-06-12 16:54:00,76.0,50.0,29.80,ENE,59,3.0,17.0,40,0.00,,,-99.99,,2013-06-12 20:54:00,
2013-06-12 17:00:00,76.0,50.0,29.80,WNW,298,5.0,12.0,40,0.00,,,-99.99,,2013-06-12 21:00:00,
2013-06-12 17:33:00,76.0,50.0,29.80,WNW,298,5.0,12.0,40,0.00,,,-99.99,,2013-06-12 21:33:00,
2013-06-12 17:43:00,76.0,50.0,29.80,WNW,298,5.0,12.0,40,0.00,,,-99.99,,2013-06-12 21:43:00,
2013-06-12 17:53:00,76.0,50.0,29.80,WNW,298,5.0,12.0,40,0.00,,,-99.99,,2013-06-12 21:53:00,
2013-06-12 18:00:00,77.0,53.0,29.80,SE,131,3.0,16.0,44,0.00,,,-99.99,,2013-06-12 22:00:00,
2013-06-12 18:33:00,77.0,53.0,29.80,SE,131,3.0,16.0,44,0.00,,,-99.99,,2013-06-12 22:33:00,
2013-06-12 18:43:00,77.0,53.0,29.80,SE,131,3.0,16.0,44,0.00,,,-99.99,,2013-06-12 22:43:00,
2013-06-12 18:53:00,77.0,53.0,29.80,SE,131,3.0,16.0,44,0.00,,,-99.99,,2013-06-12 22:53:00,
2013-06-12 19:00:00,74.0,58.0,29.83,NNW,341,0.0,8.0,59,0.00,,,-99.99,,2013-06-12 23:00:00,
2013-06-12 19:32:00,74.0,58.0,29.83,NNW,341,0.0,8.0,59,0.00,,,-99.99,,2013-06-12 23:32:00,
2013-06-12 19:43:00,74.0,58.0,29.83,NNW,341,0.0,8.0,59,0.00,,,-99.99,,2013-06-12 23:43:00,
2013-06-12 19:53:00,74.0,58.0,29.83,NNW,341,0.0,8.0,59,0.00,,,-99.99,,2013-06-12 23:53:00,
2013-06-12 20:00:00,64.0,58.0,29.85,NNW,338,0.0,4.0,83,0.00,,,-99.99,,2013-06-13 00:00:00,